www.pogodaiklimat.ru
Время
и дата
03:51 30.06
04:51 30.06
05:51 30.06
06:51 30.06
07:51 30.06
08:51 30.06
09:51 30.06
10:51 30.06
11:51 30.06
12:51 30.06
13:51 30.06
14:51 30.06
15:51 30.06
16:51 30.06
17:51 30.06
18:51 30.07
19:51 30.06
20:51 30.06
21:51 30.06
22:51 30.06
23:51 30.06
00:51 01.07
01:51 01.07
02:51 01.07
03:51 01.07
04:51 01.07
05:51 01.07
06:51 01.07
07:51 01.07
08:51 01.07
09:51 01.07
10:51 01.07
11:51 01.07
12:51 01.07
13:51 01.07
14:51 01.07
15:51 01.07
16:28 01.07
16:51 01.07
17:01 01.07
17:09 01.07
17:12 01.07
17:19 01.07
17:45 01.07
17:47 01.07
17:51 01.07
17:56 01.07
18:00 01.07
Ветер
(напр.,м/с)
Видим. Явления Облачность Т
(С)
Тd
(С)
f
(%)
Тe
(С)
Тes
(С)
Комфортность P
(гПа)
Po
(гПа)
Тmin
(С)
Tmax
(С)
R
(мм)
R24
(мм)
S
(см)
Ю 1 16 км ясно +16.7 +12.2 75 +16 +16 1022.1 995.5
Ю 1 16 км ясно +17.2 +12.2 72 +17 +17 1022.4 995.8
Ю 1 16 км ясно +18.3 +12.2 68 +19 +19 1022.3 995.8
Ю 2 16 км ясно +21.7 +12.8 57 +24 +25 комфорт 1022.5 996.1 +16.1 +21.7
ЮЗ 2 16 км ясно +23.9 +12.8 50 +26 +28 жарко 1022.7 996.1
ЮЗ 1 16 км 10/0 2400 м
[Ac]
+25.0 +13.9 50 +27 +29 жарко 1022.5 996.1
З 2 16 км ясно +27.8 +15.0 46 +30 +38 жарко 1021.6 995.1
З 2 16 км ясно +29.4 +15.6 43 +32 +42 душно 1020.9 994.5
З 2 16 км ясно +28.9 +15.6 44 +32 +41 душно 1020.8 994.5
СЗ 2 16 км ясно +28.3 +15.6 46 +31 +45 душно 1020.1 993.5 +21.7 +30.0
СЗ 2 16 км ясно +27.8 +15.0 46 +30 +41 жарко 1019.7 993.2
З 2 16 км ясно +28.3 +14.4 43 +31 +42 душно 1018.7 992.2
СЗ 1 16 км ясно +28.9 +13.9 40 +31 +42 жарко 1018.2 991.9
нст 1 16 км 5/0 2400 м
[Ac]
+27.8 +13.9 42 +30 +36 жарко 1017.9 991.5
штиль 0 16 км ясно +28.3 +13.9 41 +30 +38 жарко 1017.4 991.2
штиль 0 16 км 2/0 2250 м
[Ac]
+27.8 +13.3 41 +30 +32 жарко 1017.4 991.2 +27.2 +30.0
штиль 0 16 км ясно +25.0 +14.4 52 +28 +28 жарко 1017.0 990.9
Ю 2 16 км ясно +24.4 +13.3 50 +27 +27 жарко 1016.9 990.5
Ю 2 16 км ясно +23.9 +12.8 50 +26 +26 жарко 1016.7 990.5
Ю 2 16 км ясно +24.4 +12.8 48 +26 +26 жарко 1016.6 990.5
Ю 3 16 км ясно +24.4 +12.8 48 +26 +26 жарко 1016.1 989.9
Ю 3
{4}
16 км ясно +24.4 +12.2 46 +26 +26 жарко 1015.7 989.5 +22.8 +27.2
Ю 3
{4}
16 км ясно +24.4 +13.3 50 +27 +27 жарко 1015.3 989.2
Ю 3 16 км ясно +25.0 +14.4 52 +28 +28 жарко 1014.7 988.6
Ю 3
{5}
16 км ясно +25.0 +14.4 52 +28 +28 жарко 1014.6 988.6
Ю 3 16 км ясно +23.9 +14.4 55 +26 +26 жарко 1014.5 988.6
Ю 2 16 км ясно +23.9 +15.0 57 +27 +27 жарко 1014.6 988.6
ЮЗ 3 16 км ясно +25.6 +15.6 54 +29 +29 душно 1014.5 988.6 +23.3 +25.6
ЮЗ 2 16 км ясно +26.1 +15.6 52 +29 +31 жарко 1014.5 988.6
ЮЗ 3
{4}
16 км ясно +28.3 +15.0 44 +31 +34 душно 1014.2 988.2
ЮЗ 3
{5}
16 км ясно +30.6 +12.8 34 +32 +35 жарко 1014.1 987.9
З 3
{4}
16 км ясно +30.6 +16.1 42 +34 +38 очень
душно
1014.2 988.2
З 3
{4}
16 км ясно +30.0 +17.2 46 +34 +39 очень
душно
1013.7 987.6
З 3
{4}
16 км ясно +29.4 +17.2 48 +33 +41 душно 1013.1 987.2 +25.6 +31.1
З 2 16 км 10/0 3300 м
[Ac]
+28.3 +17.8 53 +33 +37 очень
душно
1012.6 986.6
З 2 16 км 10/2 930 м
[Ac]
+28.9 +17.8 51 +33 +38 очень
душно
1012.1 986.2
нст 1 16 км 10/0 3000 м
[Ac]
+28.3 +17.8 53 +33 +36 очень
душно
1011.7 985.6
З 2 0 м гроза 10/0 2250 м
[Ac]
+27.2 +17.8 56 +31 +33 душно 985.9
СЗ 1 0 м гроза, слабый дождь 10/8 1800 м
[Ac]
+23.9 +20.0 79 +29 +30 душно 1012.5 986.6
СЗ 1 2 км гроза, сильный дождь 10/8 1140 м
[Ac]
+22.8 +20.0 84 +29 +30 очень
душно
986.9
СВ 1 1 км гроза со слабым дождем, дымка 10/2 780 м
[Ac]
+22.2 +20.0 87
СВ 1 3 км гроза со слабым дождем, дымка 10/2 870 м
[Ac]
+22.2 +20.0 87
штиль 0 14 км гроза со слабым дождем 10/8 780 м
[Ac]
+22.2 +19.4 84
ЮЗ 2 2 км гроза со слабым дождем, дымка 10/10 420 м +22.0 +21.0 94 +28 +28 душно 987.6
ЮЗ 2 800 м гроза с сильным дождем, туман 10/10 480 м +22.0 +20.0 88 +28 +28 душно 987.2
Ю 2 800 м гроза с сильным дождем, туман 10/10 810 м +21.7 +19.4 87 +27 +27 душно 1013.1 986.9
Ю 1 2 км гроза с дождем, дымка 10/10 930 м +21.1 +19.4 90 +26 +26 душно 986.9
ЮВ 2 5 км гроза со слабым дождем, дымка 10/8 960 м
[Ac]
+21.1 +19.4 90 +26 +26 душно 986.6
Местоположение метеостанции Erie International Airport: широта 42.0800 долгота -80.1825 высота над уровнем моря 223 м.
В архиве по умолчанию представлена погода в Эри за последние 1-2 суток. Обновление информации о фактической погоде в базе происходит ежечасно! Архивные данные за месяц целиком и за предыдущие месяцы Вы можете получить, выбрав интересующий диапазон дат из раскрывающегося списка и нажав кнопку "Ввод!".
Внимание! Архив погоды МЕТАР в базе сайта по станциям, не включенным в климатический монитор, хранится не более 60 дней. Нет смысла пытаться выбрать более раннюю дату.
*Определитесь, кто Вы:
Внимание! Время в таблицах - местное (без учета летнего времени). Для получения всемирного времени необходимо вычесть поправку, которая равна -5 ч.
Смотрите также архив погоды в соседних городах и на ближайших метеорологических станциях:
Партнеры нашего сайта:      
Пояснения к столбцам:
  • Ветер - указаны скорость ветра в м/с - средняя за 10 мин, порывы в срок и между сроками (в фигурных скобках) и направление, откуда дует ветер: С - северный,
  • СВ - северо-восточный, В - восточный, ЮВ - юго-восточный, Ю - южный, ЮЗ - юго-западный, З - западный, СЗ - северо-западный.
  • Видимость - горизонтальная дальность видимости в метрах или километрах. При видимости от 1 до 10 км при отсутствии осадков обычно наблюдается дымка, при ухудшении видимости до 1 км и менее - туман. В сухую погоду видимость может ухудшаться дымом, пылью или мглою.
  • Явления - указаны атмосферные явления, наблюдавшиеся в срок или в последний час перед сроком; фигурными скобками обозначены явления, наблюдавшиеся между сроками (за 1-3 часа до срока); квадратными скобками обозначены град или гололедные отложения с указанием их диаметра в мм.
  • Облачность - указаны через наклонную черту общая и нижняя облачность в баллах и высота нижней границы облаков в метрах; квадратными скобками обозначены формы облаков: Ci - перистые, Cs - перисто-слоистые, Cc - перисто-кучевые, Ac - высококучевые, As - высокослоистые, Sc - слоисто-кучевые, Ns - слоисто-дождевые, Cu - кучевые, Cb - кучево-дождевые. Подробнее классификацию облаков см. в Атласе облаков (PDF).
  • T - Температура воздуха - температура, измеренная на высоте 2 м над землей.
  • Td - Температура точки росы - температура, при понижении до которой содержащийся в воздухе водяной пар достигнет насыщения.
  • f - Относительная влажность воздуха - влажноcть воздуха, измеренная на высоте 2 м над землей.
  • Te - Эффективная температура - температура, которую ощущает одетый по сезону человек в тени. Характеристика душности погоды. При расчете учитывается влияние влажности воздуха и скорости ветра на теплоощущения человека.
  • Tes - Эффективная температура на солнце - температура, которую ощущает человек, с поправкой на солнечный нагрев. Характеристика знойности погоды. Зависит от высоты солнца над горизонтом, облачности и скорости ветра. Ночью, в пасмурную погоду, а также при ветре 12 м/с и более поправка равна нулю.
  • P - Атмосферное давление - приведенное к уровню моря атмосферное давление.
  • Po - Атмосферное давление - измеренное на уровне метеостанции атмосферное давление.
  • Tmin - Минимальная температура - минимум температуры воздуха на высоте 2 м над землей.
  • Tmax - Максимальная температура - максимум температуры воздуха на высоте 2 м над землей.
  • R - Количество осадков - Количество выпавших осадков за период времени, мм. При наведении курсора мыши на число - период времени, за который выпало указанное количество осадков.
  • R24 - Количество осадков - Количество выпавших осадков за 24 часа, мм.
  • S - Снежный покров - Высота снежного покрова, см. При наведении курсора мыши на число - состояние снежного покрова и степень покрытия местности в баллах.